Location: Wildlife_Club
(35.6000°N, 81.4330°W)
Time: 21:01:07
(UTC-04:00)

A-11 Canister half - Pass Details

Date: 02 July 2019
Orbit: 1514 x 1686 km, 47.2° (Epoch: 13 October)

Event Time Altitude Azimuth Distance (km) Brightness Sun altitude
Rises 07:27:52 0° 208° (SSW) 4,919 11.2 12.8°
Reaches altitude 10° 07:31:12 10° 202° (SSW) 3,938 10.8 13.4°
Maximum altitude 07:40:41 46° 133° (SE) 2,136 10.3 15.3°
Drops below altitude 10° 07:50:04 10° 64° (ENE) 3,907 13.4 17.1°
Sets 07:53:20 0° 59° (ENE) 4,878 13.1 17.7°
